Location: Unspecified
(41.1637°N, 24.2901°E)
Time: 15:50:20
(UTC+01:00)

ISS - Pass Details

Date: 26 November 2020
Orbit: 418 x 420 km, 51.6° (Epoch: 30 November)

Event Time Altitude Azimuth Distance (km) Brightness Sun altitude
Rises 18:12:00 0° 295° (WNW) 2,362 1.0 -25.1°
Reaches altitude 10° 18:14:53 10° 322° (NW) 1,499 -0.6 -25.6°
Enters shadow 18:15:15 11° 328° (NNW) 1,426 -0.8 -25.7°
